Location: Cheching
(60.0667°N, 164.2167°W)
Time: 14:13:03
(UTC+00:00)

STRAND 1 - Pass Details

Date: 22 January 2021
Orbit: 768 x 780 km, 98.4° (Epoch: 04 March)

Event Time Altitude Azimuth Distance (km) Brightness Sun altitude
Rises 13:36:45 0° 73° (ENE) 3,258 ? -41.7°
Reaches altitude 10° 13:41:46 10° 30° (NNE) 2,337 ? -41.2°
Maximum altitude 13:42:09 10° 25° (NNE) 2,332 ? -41.2°
Drops below altitude 10° 13:42:33 10° 21° (NNE) 2,338 ? -41.1°
Enters shadow 13:44:41 - 359° (N) 2,569 ? -40.9°
